Home > Weather > Idaho Falls > Past weeks

Flag for USA Weather for the Past 2 Weeks in Idaho Falls, Idaho, USA

Now
42 °F

Sunny.


Feels Like: 38 °F
Forecast: 37 / 60 °F
Wind: 6 mph from Northeast

Location: Fanning Field

Current Time: Apr 30, 2016 at 9:55:30 AM

Latest Report: Apr 30, 2016 at 8:53 AM


Visibility: 10 mi

Pressure: 30.01 "Hg (25.19 "Hg at 1429m altitude)

Humidity: 76%

Dew Point: 35 °F

Location of Idaho FallsLocation

Historic Weather in Idaho Falls — Graph

°F

Idaho Falls Temperature Yesterday

Maximum temperature yesterday: 55 °F (at 3:53 PM)
Minimum temperature yesterday: 38 °F (at 3:53 AM)
Average temperature yesterday: 45 °F

High & Low Weather Summary for the Past Weeks

 TemperatureHumidityPressure
High77 °F (Apr 21, 4:53 PM)97% (Apr 24, 3:53 AM)30.40 "Hg (Apr 24, 3:53 AM)
Low26 °F (Apr 16, 6:53 AM)12% (Apr 17, 4:53 PM)29.56 "Hg (Apr 23, 4:53 AM)
Average49 °F52%29.93 "Hg
* Reported Apr 15 7:53 AM — Apr 30 7:53 AM, Idaho Falls, Weather by CustomWeather, © 2016

Note: Actual official high and low records may vary slightly from our data, if they occured in-between our weather recording intervals... More about our weather records

Advertising

Idaho Falls Weather History for the Previous 24 Hours

Scroll right to see more
 ConditionsComfort  
Time TempWeatherWind HumidityBarometerVisibility
7:53 AM
Sat, Apr 30
36 °FPassing clouds.No wind89%30.00 "Hg10 mi
6:53 AM31 °FClear.3 mph96%29.99 "Hg8 mi
5:53 AM33 °FClear.3 mph92%29.96 "Hg10 mi
4:53 AM33 °FClear.6 mph92%29.96 "Hg10 mi
3:53 AM32 °FPassing clouds.3 mph92%29.92 "Hg10 mi
2:53 AM34 °FPartly cloudy.No wind92%29.92 "Hg10 mi
1:53 AM38 °FOvercast.3 mph86%29.91 "Hg10 mi
12:53 AM35 °FPassing clouds.3 mph92%29.91 "Hg10 mi
11:53 PM
Fri, Apr 29
41 °FPassing clouds.5 mph82%29.90 "Hg10 mi
10:53 PM39 °FClear.3 mph89%29.89 "Hg10 mi
9:53 PM44 °FSunny.No wind73%29.87 "Hg10 mi
8:53 PM45 °FPassing clouds.5 mph71%29.85 "Hg10 mi
7:53 PM48 °FSunny.6 mph63%29.84 "Hg10 mi
6:53 PM49 °FPartly sunny.10 mph61%29.82 "Hg10 mi
5:53 PM51 °FPartly sunny.9 mph56%29.81 "Hg10 mi
4:53 PM48 °FLight rain. Broken clouds.10 mph68%29.83 "Hg10 mi
3:53 PM55 °FPartly sunny.12 mph45%29.81 "Hg10 mi
2:53 PM51 °FBroken clouds.9 mph54%29.83 "Hg10 mi
1:53 PM50 °FCloudy.6 mph54%29.85 "Hg10 mi
12:53 PM50 °FCloudy.12 mph57%29.87 "Hg10 mi
11:53 AM49 °FPartly sunny.8 mph57%29.88 "Hg10 mi
10:53 AM49 °FPartly sunny.14 mph55%29.88 "Hg10 mi
9:53 AM48 °FBroken clouds.12 mph54%29.88 "Hg10 mi
Weather by CustomWeather, © 2016

See weather overviewHow to use our weather pages